Location: Bow
(51.5261°N, 0.0167°W)
Time: 05:53:10
(UTC+00:00)

NOSS 8 (E) - Pass Details

Date: 18 September 2020
Orbit: 385 x 1787 km, 63.3° (Epoch: 18 October)

Event Time Altitude Azimuth Distance (km) Brightness Sun altitude
Rises 19:08:07 0° 225° (SW) 2,423 8.5 -10.2°
Reaches altitude 10° 19:10:16 10° 227° (SW) 1,476 7.4 -10.6°
Maximum altitude 19:13:24 83° 315° (NW) 397 4.1 -11.0°
Drops below altitude 10° 19:16:26 10° 44° (NE) 1,441 6.7 -11.5°
Enters shadow 19:18:08 - 45° (NE) 2,184 7.6 -11.7°
